RH
56 59 52 36 26 16 16 9 9 8 9 9 7 6 6 5 4 4 3 2 2 2 2 1 1 1 1 1 1 2 2 2 3 4 6 13 17 14 11 9 10 9 9 8 9 8 11 13 16 14 11 10 17 16
64 64 48 40 20 17 15 10 11 11 12 12 10 8 7 6 6 5 4 3 3 2 2 2 2 2 2 2 1 2 2 2 2 2 3 5 9 14 17 16 13 9 7 7 8 7 9 13 18 15 13 12 18 22
69 58 45 42 21 18 13 12 14 12 17 16 14 13 12 12 11 8 6 4 3 3 3 3 2 2 2 2 2 2 2 2 2 3 3 3 4 6 10 17 18 17 14 8 6 6 7 11 15 17 16 14 15 22
75 57 42 34 21 19 13 13 17 18 22 22 25 25 21 21 18 13 9 6 4 3 3 3 3 3 3 2 2 2 2 2 2 2 2 3 3 3 4 5 8 12 16 17 14 10 8 8 16 17 19 18 18 19
74 56 43 27 21 19 14 15 19 22 29 30 29 32 34 38 32 28 16 10 6 4 4 4 4 4 4 4 3 3 3 3 3 3 2 2 2 3 3 3 4 3 5 9 16 21 18 11 15 15 17 28 32 44
67 52 41 23 20 18 15 16 17 31 34 39 35 36 43 46 44 37 34 15 9 6 6 5 4 4 4 5 6 5 4 4 4 4 4 3 3 3 3 3 3 3 4 5 9 14 23 23 21 18 15 20 52 60
63 53 38 22 21 18 17 19 19 39 38 44 35 31 36 47 53 39 34 28 15 14 9 7 6 5 5 5 6 5 5 6 6 5 5 4 4 4 3 3 3 3 3 3 4 6 15 24 25 27 25 24 24 29
60 51 28 21 20 20 20 22 21 45 56 58 58 53 45 59 82 62 55 39 37 28 24 15 10 9 7 7 7 8 6 6 7 8 9 7 6 5 4 4 3 4 3 4 4 5 9 18 23 31 38 40 49 47
59 52 24 21 20 20 20 23 20 52 50 70 64 48 72 80 96 80 68 69 72 53 47 35 21 20 21 21 22 24 30 20 24 24 16 15 22 13 17 16 8 4 4 4 4 4 6 11 20 33 35 48 67 68
54 44 23 22 20 22 22 22 22 53 56 66 73 44 84 94 100 82 74 60 64 71 71 64 71 68 74 52 38 42 78 67 76 58 48 68 42 27 43 30 20 13 9 6 6 6 6 9 20 28 37 100 100 100
54 31 23 24 22 24 20 21 30 53 65 72 82 59 100 100 98 98 79 75 78 88 92 97 100 100 100 100 91 97 100 100 100 100 100 97 56 47 36 61 56 100 90 62 14 14 9 35 36 33 76 100 100 100
50 24 24 24 25 26 27 25 28 54 71 72 77 66 100 100 96 96 99 88 79 93 100 100 100 100 100 100 100 88 100 100 100 100 100 100 97 80 59 62 100 52 91 86 38 12 15 98 100 65 93 95 95 100
34 25 25 25 24 26 28 27 32 58 80 79 84 90 100 91 85 98 92 97 93 100 100 100 100 100 100 100 100 100 100 100 100 100 100 100 100 100 100 100 98 89 75 73 88 51 44 100 100 95 79 100 100 99
26 26 26 27 26 25 27 27 41 64 86 95 84 100 100 98 74 73 82 96 100 100 100 100 100 100 100 100 100 100 100 100 100 100 100 100 100 94 100 100 100 99 96 100 100 100 100 77 78 100 100 100 100 100
29 27 27 31 27 27 25 28 47 83 100 79 100 100 100 86 77 70 80 98 97 100 100 100 100 100 100 100 100 100 100 100 100 100 100 100 100 100 100 100 95 92 94 96 81 100 100 100 100 100 100 100 100 91
32 28 33 31 30 29 27 32 54 82 89 90 100 100 96 100 100 94 69 68 81 83 100 100 100 100 100 100 100 100 100 100 100 100 100 100 100 100 100 100 100 100 100 100 100 99 100 100 76 84 88 100 100 100
31 33 38 34 32 42 46 39 60 81 98 100 98 100 100 91 96 100 100 96 63 62 75 84 98 100 100 100 100 100 100 100 100 100 100 100 100 100 100 100 100 100 100 100 100 100 100 100 100 100 100 100 100 92
38 43 40 34 35 51 56 50 62 73 95 100 100 100 87 100 100 100 100 100 92 98 70 70 70 90 100 100 100 100 100 100 100 100 100 100 100 100 100 100 100 100 100 100 100 100 99 99 99 100 100 100 100 100
46 52 48 44 38 46 54 63 73 81 89 99 100 100 100 97 94 77 72 81 79 90 80 81 78 63 66 83 97 100 100 100 92 97 99 100 100 99 100 100 100 98 100 100 100 100 96 100 100 100 100 100 100 100
58 63 60 55 52 54 49 51 59 67 71 80 90 91 89 94 91 90 96 98 91 75 66 70 78 88 83 77 66 80 90 90 88 82 78 84 79 87 99 100 100 100 100 100 100 96 100 100 100 100 100 100 100 100
58 59 61 58 59 60 67 72 81 87 95 100 95 76 84 90 81 74 71 63 58 61 58 58 60 56 60 76 84 80 72 66 68 78 82 84 82 89 85 90 83 98 100 100 100 100 100 100 100 100 100 100 100 100
60 64 62 64 58 62 67 65 65 72 73 63 67 69 70 70 70 70 77 74 69 64 57 50 43 40 43 46 49 51 53 55 55 60 63 68 77 79 72 66 65 78 75 99 100 97 86 100 100 94 80 82 99 88
54 54 57 60 68 71 75 79 79 79 79 82 82 79 78 75 74 75 77 78 73 65 53 46 43 42 37 32 29 30 34 38 40 43 45 46 46 48 53 60 67 71 63 63 72 78 77 79 93 91 67 69 70 79
52 55 57 57 59 65 69 72 78 84 87 84 83 82 77 79 77 78 81 75 63 53 47 42 39 35 32 32 33 32 30 29 28 27 27 28 31 34 37 39 38 36 34 35 44 54 54 50 50 51 61 69 64 54
54 54 53 56 58 60 61 66 72 78 81 79 83 84 83 84 88 86 80 70 63 58 48 41 36 35 29 25 25 25 29 32 32 30 30 28 27 25 21 18 19 22 22 22 24 26 26 27 28 29 31 34 37 38
59 60 60 60 61 62 64 68 70 72 73 77 83 88 87 82 82 83 81 79 69 50 36 32 31 28 28 26 23 23 22 24 26 27 29 30 26 16 13 10 8 8 8 10 12 14 16 17 18 19 19 20 20 20
66 62 60 63 66 65 66 64 62 64 67 70 72 76 80 79 75 75 77 73 63 51 40 39 40 38 35 32 26 23 22 20 20 21 22 22 21 16 11 9 8 8 9 10 10 11 12 12 11 11 10 10 9 9
68 66 61 61 67 70 69 65 66 66 61 62 66 74 81 78 77 82 80 72 66 54 37 34 41 42 36 30 25 22 20 20 19 16 15 17 18 17 13 10 8 8 8 8 8 8 9 10 12 13 14 14 14 13
66 68 66 67 72 70 68 71 74 75 70 68 64 68 78 82 84 88 88 90 87 82 67 52 38 30 26 24 23 21 21 21 20 19 19 18 17 15 13 11 9 7 7 6 7 7 7 7 7 7 8 8 8 8
70 70 73 73 76 74 67 64 70 68 65 59 68 86 84 83 88 87 88 89 94 94 84 62 44 36 34 29 23 21 21 21 20 19 19 18 18 17 16 14 13 10 9 8 8 7 6 6 5 5 5 6 6 6
69 73 76 81 85 80 77 73 74 63 64 73 83 87 87 88 88 89 89 88 87 91 88 77 59 39 31 24 19 18 20 20 20 19 17 15 13 12 10 9 8 8 7 6 5 5 4 4 4 5 5 5 4 4
82 85 84 82 86 88 84 89 82 80 82 85 88 89 85 89 93 89 87 82 78 81 78 74 64 44 27 24 21 18 18 18 18 16 15 14 12 10 7 5 5 4 4 4 4 4 4 4 4 4 4 4 4 4
79 81 87 86 79 76 87 90 96 96 91 86 87 86 83 84 87 82 77 76 73 69 64 60 52 41 29 22 20 17 17 16 15 13 10 7 6 5 4 4 4 4 4 4 4 4 4 4 4 3 3 2 2 2
Wind_Speed
106 108 113 109 103 90 76 67 61 58 53 51 48 44 39 35 32 29 24 20 19 16 13 16 22 29 35 43 48 53 58 66 75 85 95 109 114 107 101 106 108 107 107 101 103 97 91 87 85 85 74 72 71 68
108 106 112 106 95 86 72 63 57 53 52 52 46 43 37 34 32 30 23 19 17 16 12 9 10 14 21 30 36 40 43 49 56 66 74 86 97 106 114 109 109 105 99 101 99 87 87 87 92 86 79 77 77 77
105 108 108 105 89 81 67 59 53 51 49 47 42 40 39 39 36 32 27 21 18 15 14 11 6 5 8 14 20 26 32 37 44 52 59 67 76 89 101 111 112 105 105 103 99 90 86 90 93 91 87 83 81 81
103 109 104 101 87 74 62 54 49 45 46 41 40 40 38 39 38 35 33 26 20 18 16 14 8 2 4 9 12 16 22 27 33 39 45 52 60 68 79 86 95 106 113 106 103 96 92 90 90 91 91 90 87 87
104 108 101 94 83 68 57 50 45 41 43 38 35 36 38 38 38 39 34 29 26 22 20 17 14 10 7 7 9 9 11 18 21 26 32 38 43 50 54 61 71 79 88 95 103 103 95 94 94 93 89 86 89 83
103 102 100 84 79 62 51 46 43 37 34 33 33 33 33 34 36 37 36 32 29 26 21 18 18 14 14 16 16 14 13 12 13 15 20 26 32 39 43 50 56 61 67 77 90 96 104 101 95 96 93 91 79 72
102 97 98 79 73 59 48 44 38 30 30 32 36 33 34 33 39 32 33 36 32 33 29 24 23 21 20 18 17 17 19 18 16 16 16 18 22 25 30 37 44 49 55 62 69 76 93 106 105 100 92 89 90 89
100 96 90 75 67 53 42 38 31 27 21 26 31 36 34 37 39 33 31 35 35 34 32 29 27 25 22 23 21 18 16 15 17 18 17 14 14 19 23 28 35 37 38 44 52 59 73 93 99 101 101 93 94 93
95 96 82 71 63 48 39 34 23 23 19 20 27 30 37 32 34 31 29 32 33 34 35 35 31 32 32 31 31 30 30 26 26 25 20 23 28 26 21 19 21 27 30 34 41 50 58 72 85 97 97 90 86 88
90 93 75 66 60 46 37 30 21 18 17 17 22 27 38 29 29 26 27 26 28 34 42 45 47 50 52 45 39 41 41 37 40 36 32 35 26 29 26 18 18 21 27 40 36 41 50 59 76 86 80 75 72 64
90 84 69 61 57 47 36 28 17 14 15 16 15 22 32 32 28 21 24 28 33 42 46 49 53 56 58 56 55 52 46 41 45 44 39 32 24 27 27 21 25 32 15 10 28 41 48 47 70 75 73 80 86 79
89 72 61 56 53 42 32 25 13 11 10 13 18 25 30 18 20 20 21 25 30 41 47 53 51 52 52 53 52 54 51 43 44 41 36 34 24 18 21 23 30 19 19 12 24 35 53 76 78 78 96 93 90 82
81 66 56 53 49 38 28 20 10 8 9 10 19 25 17 15 21 16 18 24 32 39 44 42 44 40 43 45 45 46 47 46 41 34 34 33 27 29 27 29 24 20 11 13 12 29 46 63 62 67 74 69 80 97
68 58 53 48 46 35 23 17 8 10 6 4 18 19 9 8 16 18 20 25 31 32 30 34 36 35 33 34 38 34 34 36 39 42 37 32 24 25 17 21 21 16 19 17 15 42 32 52 71 75 75 76 73 69
60 54 48 46 43 31 21 13 10 9 6 2 14 7 7 16 18 18 21 21 25 28 26 25 22 23 26 29 30 25 23 26 28 27 34 36 28 13 20 16 21 17 13 12 18 49 51 53 66 83 79 90 90 73
51 49 44 43 36 29 21 14 11 6 4 2 7 2 6 5 10 10 13 13 17 20 23 22 24 18 13 14 19 10 12 13 29 31 30 32 33 28 26 19 16 9 7 6 15 31 58 60 53 60 71 81 73 62
45 42 42 38 30 30 22 13 8 6 8 5 5 4 4 12 7 4 6 2 6 8 17 21 20 15 18 17 15 11 8 11 20 25 28 24 27 29 35 31 32 27 20 16 20 17 29 37 37 37 34 35 59 73
34 34 35 37 34 31 23 15 13 9 8 5 6 10 12 5 8 11 11 14 11 6 7 16 24 19 14 21 18 14 15 15 13 33 31 28 30 26 36 35 34 32 30 25 28 31 33 41 40 30 34 42 40 39
24 28 33 37 30 24 21 22 20 15 9 5 2 7 13 15 18 19 18 16 19 20 19 18 20 25 26 29 29 26 26 22 31 28 39 39 34 38 35 36 36 34 33 32 33 31 30 31 35 37 40 40 42 46
27 29 29 28 28 24 20 18 17 14 12 12 13 11 10 12 13 13 15 20 22 20 16 17 21 24 24 23 30 40 37 37 36 36 43 45 46 45 45 44 46 43 43 42 43 48 46 48 48 47 48 49 52 56
26 27 24 22 21 19 19 20 20 16 17 16 16 18 17 19 21 22 24 26 23 21 20 19 17 15 21 28 32 32 32 36 43 48 49 49 51 53 54 51 51 52 52 56 54 53 55 58 58 60 60 61 62 63
25 22 21 20 22 23 20 20 18 16 13 15 17 17 17 16 14 16 18 22 25 27 28 27 25 22 20 20 21 27 33 40 44 45 48 50 56 63 63 60 64 63 65 67 67 65 66 70 73 72 71 74 74 75
23 26 27 27 27 26 26 26 24 22 21 22 22 22 22 22 23 23 23 26 27 28 28 27 24 25 25 25 24 24 27 32 36 39 41 43 46 49 53 58 63 71 76 75 76 76 78 79 81 82 82 83 84 86
23 23 25 26 27 27 26 24 24 24 23 22 22 24 25 26 28 28 27 29 30 28 25 24 24 25 25 25 27 28 29 29 30 32 32 33 36 39 44 48 52 56 60 66 73 80 82 84 85 86 87 89 90 91
24 25 27 29 30 31 31 30 28 26 26 27 28 28 28 28 27 29 31 32 33 34 32 27 22 25 28 27 25 24 24 27 28 29 28 28 29 31 34 36 39 45 49 52 54 57 61 66 71 75 77 81 85 89
26 27 28 31 32 34 35 34 32 29 28 28 28 30 33 32 30 32 34 36 38 36 32 30 26 23 24 26 28 26 26 25 26 28 29 29 30 32 33 35 35 37 39 42 45 48 52 55 57 59 61 64 67 70
29 30 30 31 32 34 37 38 36 34 32 30 29 30 34 36 36 34 35 35 37 39 37 34 33 32 30 29 27 26 26 26 26 27 28 29 28 27 28 29 29 30 31 33 35 37 41 45 47 50 53 56 58 60
26 30 31 32 32 34 36 37 38 39 38 37 34 32 34 36 35 36 40 44 46 46 43 39 36 34 31 29 28 29 28 27 28 27 26 26 26 26 27 27 26 26 28 30 31 33 34 36 39 42 45 47 49 50
26 28 31 31 33 37 38 38 39 40 39 38 38 38 40 42 39 41 46 48 49 47 45 43 41 38 36 33 31 29 28 27 26 26 27 29 31 30 30 29 28 27 27 27 28 29 30 32 33 35 38 39 41 42
25 28 28 31 34 38 41 39 38 38 36 37 42 43 45 47 47 46 48 50 48 45 45 46 45 41 37 33 28 27 26 25 25 25 26 27 29 30 31 32 32 32 31 31 32 32 33 33 33 34 34 34 34 36
26 29 31 32 35 40 44 42 44 43 41 42 41 44 46 48 49 50 49 49 47 45 46 48 47 43 38 36 32 30 29 28 28 29 29 28 28 28 28 28 28 29 30 31 31 31 31 32 32 31 31 32 32 32
28 30 32 34 37 40 40 40 43 42 43 43 44 44 46 48 49 50 49 48 48 46 46 47 46 44 40 37 36 34 33 33 32 31 31 30 31 31 30 30 31 31 30 29 29 29 29 28 28 27 28 28 28 28
26 28 31 33 35 34 33 38 40 42 42 41 42 43 43 44 47 47 48 48 48 49 48 47 45 44 43 41 39 38 37 36 35 34 32 30 30 30 30 29 29 29 28 27 26 26 25 25 24 24 23 23 24 24
Wind_Direction
335 338 339 342 340 341 341 343 344 345 347 350 350 349 352 352 350 349 349 347 341 329 300 268 250 242 239 235 233 232 231 229 230 232 232 233 231 231 229 229 230 231 231 230 230 231 231 234 234 235 233 235 233 234
336 339 340 342 340 343 343 344 346 346 348 351 354 356 359 1 4 2 359 360 4 358 342 308 267 244 235 234 232 231 231 230 229 231 231 232 232 233 231 230 230 230 231 232 229 226 227 228 230 233 231 232 236 237
337 339 341 342 340 343 345 346 347 349 351 355 359 1 7 11 13 10 9 10 10 18 19 8 337 269 225 215 217 220 222 223 223 227 230 232 232 232 233 233 232 231 231 229 230 226 224 225 227 229 228 229 231 234
338 338 341 343 341 343 346 346 347 351 353 0 6 6 14 16 17 15 16 18 21 28 33 35 36 56 212 206 202 208 211 214 220 223 224 225 226 227 230 230 230 231 230 229 230 226 225 226 226 225 227 229 229 232
338 338 341 343 343 343 346 346 346 355 359 5 11 13 19 26 26 23 20 26 26 35 41 49 52 65 103 150 166 164 190 203 208 216 222 225 226 227 229 230 231 232 230 227 228 226 224 223 225 227 224 227 230 231
338 338 340 343 343 344 346 347 350 0 1 8 13 21 23 27 24 25 26 29 38 43 50 57 66 69 85 109 123 133 145 152 171 185 198 209 213 216 220 223 225 228 228 227 228 225 225 224 220 226 224 225 225 229
337 338 341 343 344 346 347 347 352 0 1 7 10 14 22 24 20 31 33 39 47 52 51 62 73 82 93 105 123 134 132 139 150 162 177 189 193 196 206 213 217 218 218 216 218 218 221 226 224 223 222 225 228 227
337 337 340 343 346 347 349 345 355 6 359 10 14 21 27 34 39 41 41 49 56 64 65 67 72 80 87 90 89 92 110 133 135 132 132 146 165 184 190 200 209 212 213 213 212 211 214 219 223 226 225 223 228 232
337 337 340 343 347 349 349 344 0 12 6 15 14 24 40 43 46 50 51 63 69 74 77 78 80 84 89 92 98 101 106 117 121 119 129 135 142 162 148 170 197 197 195 199 202 203 206 211 216 219 223 224 232 237
336 337 340 342 348 349 349 346 5 14 20 16 17 21 52 53 40 36 59 68 73 85 90 92 91 90 91 94 98 103 116 120 122 121 121 121 145 138 129 140 155 166 180 177 185 190 200 202 209 214 214 205 208 203
336 338 340 342 347 347 347 355 9 22 28 9 26 28 61 40 39 45 57 66 86 98 98 96 95 94 93 93 96 103 125 119 118 117 118 125 131 126 136 134 127 100 98 182 180 181 191 188 201 205 195 208 208 209
336 337 340 344 345 347 345 353 7 30 36 13 16 59 59 46 57 63 68 64 92 97 100 100 100 100 100 99 99 100 104 122 128 130 131 130 128 125 132 135 124 116 121 127 171 181 181 173 188 202 195 203 208 212
336 337 341 345 346 348 351 356 3 52 52 31 14 61 78 38 58 70 86 79 102 101 100 103 98 98 99 97 100 103 103 103 114 125 138 129 135 136 142 151 158 163 169 164 174 185 188 180 195 209 192 200 219 225
334 338 343 347 345 353 357 4 20 79 82 335 46 39 64 15 25 75 89 88 92 93 100 103 108 106 101 109 108 105 113 120 123 122 130 116 117 121 158 187 200 231 223 228 187 159 181 210 197 205 197 214 221 221
333 338 345 349 347 1 6 26 63 93 89 49 68 42 22 349 20 80 93 105 120 104 105 95 104 116 118 122 122 113 124 133 135 130 121 119 111 113 106 122 131 154 152 163 205 183 182 195 208 212 215 214 225 231
332 340 347 351 352 8 14 31 76 125 152 61 63 23 25 14 24 29 54 82 131 153 130 119 118 116 128 150 159 137 169 156 160 147 146 146 145 143 152 149 157 151 122 149 183 192 201 203 209 213 218 222 222 222
337 346 354 356 9 18 16 30 112 111 136 147 342 106 296 333 352 257 319 56 149 27 184 166 151 148 165 172 181 201 205 202 190 175 162 174 174 172 162 162 165 174 176 203 195 212 208 194 205 211 220 227 235 237
345 349 358 1 9 23 18 34 45 59 82 181 254 311 322 334 297 311 290 274 279 258 214 216 206 188 197 202 207 217 218 228 217 202 200 199 196 197 186 184 183 179 184 194 197 213 216 198 198 205 218 224 226 224
355 354 354 358 8 22 24 44 48 47 45 49 358 277 278 296 296 294 291 272 288 299 281 270 248 229 222 216 216 225 226 226 221 217 214 212 210 207 204 200 209 214 213 214 218 224 223 223 226 229 229 231 230 231
356 348 349 353 1 11 11 17 25 23 22 23 7 342 335 310 305 299 294 293 301 306 290 276 259 258 256 250 237 231 231 236 234 229 222 219 218 212 213 212 211 218 225 228 232 229 226 221 224 226 229 232 234 237
350 349 353 356 2 9 13 24 29 25 16 355 325 340 332 322 321 321 318 321 322 317 313 309 297 275 259 251 249 252 246 241 241 238 235 231 229 227 222 221 225 228 231 230 228 232 233 230 230 234 236 236 240 241
356 0 6 7 9 15 14 10 15 19 7 9 9 2 360 354 341 336 328 320 320 320 321 318 313 305 293 281 264 253 251 250 245 240 238 239 241 240 239 238 235 232 229 227 232 236 235 231 235 240 241 240 242 244
18 23 22 22 25 22 19 17 12 9 6 1 356 353 350 349 349 350 345 339 336 332 328 323 314 305 299 293 283 271 262 257 254 254 256 254 251 247 245 244 245 242 237 236 236 236 237 237 238 241 243 243 243 242
14 18 20 20 18 14 11 9 9 8 4 358 355 352 353 355 354 353 349 343 339 334 331 332 326 317 305 293 285 283 281 279 273 266 261 257 256 256 256 255 254 253 250 248 247 247 250 250 249 248 247 247 248 250
22 23 24 22 17 13 10 9 10 8 5 4 4 1 357 354 353 349 348 348 345 343 339 335 327 323 318 312 302 295 287 281 279 278 277 275 276 274 271 266 261 258 258 257 257 256 256 255 254 255 255 256 256 257
23 23 24 21 19 17 16 14 14 12 9 7 3 357 353 352 349 345 344 343 344 345 344 344 343 331 322 314 310 305 297 288 281 279 280 280 279 279 278 278 274 268 264 262 260 259 259 259 260 260 260 260 259 260
19 16 15 17 20 20 18 17 16 15 10 7 4 1 356 352 351 349 347 345 346 347 348 351 347 340 334 327 319 311 304 300 294 289 287 286 286 285 281 278 277 276 273 270 267 265 263 264 265 264 264 265 265 266
5 8 8 12 12 9 7 5 7 7 5 4 2 5 4 357 354 354 354 355 353 350 351 353 350 343 338 334 329 324 316 310 305 301 296 291 289 290 289 285 281 278 276 274 273 271 269 269 268 268 268 268 268 268
350 351 358 3 4 2 2 1 3 2 358 357 357 5 6 2 358 359 0 360 356 351 348 347 349 348 346 341 333 330 325 318 313 308 306 304 303 302 299 296 294 292 288 285 283 280 279 277 276 274 272 271 270 270
343 346 349 353 356 356 356 356 357 358 356 355 1 1 1 1 358 357 358 358 356 352 348 346 346 348 346 340 336 333 329 324 319 314 310 306 301 299 298 298 299 301 301 300 299 296 293 291 289 286 283 281 278 276
343 346 347 347 347 346 350 352 351 354 358 1 0 359 357 355 355 355 354 353 353 352 348 346 345 345 345 340 338 337 334 330 327 323 320 317 312 308 305 303 301 300 298 297 295 293 291 291 290 288 287 285 283 281
340 340 341 345 346 346 350 350 351 352 354 355 354 353 353 352 351 350 348 348 351 351 348 347 344 342 344 343 340 339 338 336 332 328 325 322 319 317 316 314 311 309 308 306 303 300 298 297 294 292 290 289 286 284
334 338 341 343 344 348 350 350 349 347 347 348 348 347 346 347 347 346 345 347 349 350 348 348 346 344 343 344 343 340 338 336 334 331 330 328 325 323 321 319 318 316 314 311 308 306 304 302 301 299 296 293 291 288